Wind_Speed
21 20 20 22 23 24 26 27 24 22 23 22 20 20 18 15 16 14 13 14 14 15 15 14 14 15 14 13 12 12 12 11 11 13 15 14 12 11 11 11 11 11 11 11 9 9 9 10 11 12 13 14 13 11 11 11 11 10 10 10 9 9 8 8 7 7 7 6 5 4 4 4 4 4 4 5 5 5 6 7 7 8 8 8 9
20 21 22 23 24 24 24 25 23 22 24 23 21 22 20 16 14 12 13 14 14 16 14 13 16 16 14 13 12 12 12 12 11 11 13 14 11 11 11 11 10 10 10 9 8 8 9 9 10 12 12 12 10 9 10 10 10 10 9 9 8 8 7 7 6 6 6 5 4 3 4 4 4 4 4 4 5 5 6 7 7 7 8 8 9
20 22 23 24 24 24 23 22 21 22 22 22 24 25 22 18 14 12 12 13 15 16 14 13 17 16 14 13 11 12 13 12 12 10 11 13 11 11 10 10 9 9 8 8 7 7 8 9 9 10 10 9 8 8 8 9 9 10 9 8 7 6 6 6 5 5 5 4 3 3 3 4 4 4 4 4 5 5 6 6 7 7 7 8 9
22 23 24 25 24 24 23 21 20 21 20 21 25 27 24 19 15 12 12 12 15 17 15 15 16 16 13 12 11 12 13 12 12 10 10 12 11 10 9 8 8 7 7 7 7 6 7 7 8 8 8 7 7 6 7 8 9 9 8 7 6 6 5 5 4 4 3 3 3 3 3 3 3 3 4 4 4 5 5 5 6 6 7 7 8
24 24 24 26 25 24 23 22 22 23 22 23 24 25 24 20 16 13 11 12 16 18 17 16 16 15 13 11 10 12 13 12 12 11 10 10 11 10 8 6 6 6 5 6 5 5 6 6 7 7 7 6 5 6 7 8 9 8 7 6 5 5 4 3 3 3 2 3 3 3 3 3 3 3 3 3 4 4 5 5 6 7 7 7 7
25 25 25 26 26 24 23 22 24 25 25 25 23 22 22 21 19 15 12 13 17 18 17 16 16 15 12 10 11 12 12 12 13 12 10 9 9 9 7 6 5 4 4 5 5 5 6 6 7 7 6 6 6 7 8 8 8 8 6 5 4 4 3 3 2 2 2 2 3 3 3 3 3 2 2 3 4 5 5 6 7 7 7 7 7
23 25 25 27 27 26 24 23 25 25 25 25 23 22 22 23 21 18 15 14 16 17 16 15 15 14 11 10 11 12 11 11 12 13 11 9 7 7 7 6 5 5 5 5 5 6 6 7 7 7 6 6 7 7 7 8 8 7 5 4 3 3 3 2 2 1 2 2 2 2 2 2 2 2 2 3 4 5 6 6 7 7 8 8 8
22 24 25 26 27 26 26 25 25 24 25 25 23 22 22 23 22 20 18 17 16 16 15 14 16 15 11 10 11 12 12 11 12 12 11 9 7 7 6 6 6 6 5 5 6 6 6 7 7 7 7 6 6 7 7 7 7 5 3 2 3 3 2 2 2 1 1 2 2 2 2 1 1 1 3 4 5 5 6 6 7 7 7 7 7
24 23 24 26 26 25 25 25 24 24 24 23 23 22 21 21 22 22 20 18 17 16 17 17 16 16 14 13 14 13 12 12 13 12 11 9 8 7 6 6 7 6 6 5 5 6 7 7 7 7 6 6 6 6 7 7 5 3 1 1 2 3 3 2 2 1 1 1 1 1 1 1 1 2 4 5 5 6 6 6 6 6 6 6 6
26 25 25 26 27 25 25 25 24 22 21 20 21 21 21 21 23 24 22 21 19 17 21 22 17 17 17 16 16 14 13 13 13 12 11 10 9 8 6 6 7 6 5 5 5 6 7 7 6 6 5 5 5 5 6 6 4 2 0 1 2 2 2 2 2 2 2 1 1 1 1 2 2 3 4 5 5 6 6 6 6 6 5 5 5
28 28 27 26 26 26 26 27 25 23 21 20 21 20 20 22 24 26 24 23 23 21 23 23 19 19 18 16 16 16 14 14 13 12 11 10 9 8 7 7 7 6 5 5 6 6 6 5 5 5 5 4 4 5 5 5 3 2 1 1 2 2 2 2 2 2 2 2 1 1 1 2 2 3 4 5 6 6 6 6 6 5 5 5 6
30 30 29 27 26 26 27 28 26 24 23 22 22 21 20 21 23 25 24 22 23 23 22 22 20 19 19 16 16 17 15 13 13 13 12 11 9 9 9 8 7 7 6 6 6 6 6 5 4 5 4 3 3 4 4 4 2 1 1 1 1 1 2 2 2 2 2 1 1 1 1 2 2 3 4 5 6 6 6 6 6 5 5 5 6
30 30 30 28 27 27 27 27 26 25 24 23 23 23 22 20 21 22 22 21 21 21 21 21 21 19 19 18 17 17 15 14 15 14 12 11 10 9 10 9 8 7 6 5 6 5 5 5 5 4 4 3 3 3 3 2 1 1 1 0 1 1 2 2 2 1 1 1 1 2 2 3 3 4 4 5 5 6 6 6 6 6 5 5 6
30 30 30 29 28 27 26 26 26 26 25 23 23 23 22 21 19 19 20 21 21 21 21 21 21 20 19 18 17 17 15 15 15 14 13 12 11 11 11 10 8 7 6 6 6 5 5 6 6 4 3 2 2 2 2 2 0 1 1 0 1 2 2 1 1 1 1 1 2 2 2 3 3 4 4 5 5 6 6 6 6 6 6 6 6
30 30 30 30 30 29 27 26 26 25 25 25 24 23 22 21 20 20 21 22 21 21 21 21 20 19 18 18 18 17 15 15 15 14 14 13 12 12 11 10 9 8 7 7 7 6 6 6 6 5 4 3 2 2 2 2 1 1 1 1 2 2 2 2 2 2 2 2 2 3 3 4 4 4 4 5 6 6 6 5 5 6 6 6 6
30 30 30 30 30 30 29 28 28 26 25 25 26 25 23 22 22 22 22 22 22 21 22 22 20 18 18 19 18 16 14 15 15 14 14 13 12 12 11 11 9 8 8 8 8 7 6 6 7 6 6 4 3 2 3 3 3 3 3 3 3 3 3 3 4 4 4 4 4 4 4 5 5 4 4 5 5 5 5 5 6 6 6 6 7
30 30 30 30 30 30 31 31 30 29 27 26 26 25 24 23 22 22 22 22 23 22 22 22 20 19 19 18 17 16 15 15 15 14 14 13 12 11 11 11 10 9 9 9 8 8 7 7 7 6 6 5 4 4 4 5 5 5 5 5 5 4 4 5 5 5 6 6 5 5 6 6 6 5 5 5 5 5 6 7 7 7 7 7 7
30 31 31 30 29 29 30 31 31 30 29 27 26 25 24 23 21 21 21 21 21 20 20 20 20 21 20 18 18 17 16 15 15 14 14 13 12 12 11 10 10 9 9 9 9 8 8 8 7 6 7 6 6 6 5 6 6 6 6 6 6 6 6 7 7 7 7 7 7 7 7 7 6 6 6 5 6 7 7 8 8 7 7 7 7
30 31 31 30 29 29 29 31 31 30 29 27 26 24 22 22 20 19 20 19 19 19 20 20 20 20 20 19 19 17 16 17 16 15 14 13 13 12 11 10 10 10 10 10 9 9 8 8 7 7 8 8 8 8 7 7 7 6 6 7 7 8 8 8 8 8 8 8 8 7 8 7 7 7 7 7 7 8 8 8 8 8 8 8 8
31 31 31 31 30 28 28 30 31 28 28 27 25 23 21 20 20 19 20 20 19 20 20 20 20 20 19 19 19 18 17 17 15 15 14 13 12 12 11 11 10 11 11 11 10 10 8 8 8 9 9 8 9 9 8 8 7 7 7 7 8 9 9 9 9 9 9 9 9 8 8 8 7 7 8 9 9 9 8 8 9 9 9 8 8
31 31 31 32 31 29 27 28 29 27 26 26 26 24 21 20 20 21 22 22 22 21 21 20 20 21 20 18 18 18 18 17 15 16 15 14 14 13 13 13 12 12 12 11 11 11 10 10 10 10 9 9 9 10 10 9 8 8 8 8 9 9 10 10 10 10 10 10 9 9 9 8 8 8 8 9 9 9 9 9 9 9 9 9 9
31 30 31 31 31 30 27 26 28 27 25 25 25 24 23 22 22 24 25 23 22 22 21 21 21 21 20 19 19 18 18 17 16 16 16 15 15 14 14 14 13 12 12 12 12 11 11 11 10 10 10 10 10 11 11 10 9 10 9 9 10 10 11 11 11 11 11 10 10 10 10 9 9 8 9 9 9 9 9 9 9 9 9 9 9
33 32 31 31 30 28 27 26 26 26 25 24 23 22 23 23 21 24 26 24 22 22 21 21 21 21 20 20 20 19 18 17 16 16 16 15 15 15 14 14 14 13 13 12 12 12 11 11 11 11 11 11 11 11 11 11 11 11 11 11 11 11 11 11 11 11 11 10 10 11 11 10 10 9 9 9 9 9 9 9 9 9 9 9 10
36 35 34 32 30 27 26 25 24 24 25 24 23 22 22 22 19 20 24 24 23 22 21 20 21 21 21 20 20 19 18 17 17 17 16 15 16 16 14 14 14 14 13 13 12 12 12 12 12 12 12 11 12 12 11 11 11 11 11 11 11 11 11 11 11 11 11 11 11 11 11 11 11 11 11 10 10 10 10 10 10 10 10 10 10
38 39 37 33 31 28 24 23 23 23 24 24 23 22 21 22 20 19 22 24 24 23 22 21 21 22 21 21 21 20 18 18 18 17 16 16 16 15 15 15 14 14 14 13 13 12 12 13 13 13 12 11 11 12 11 12 12 12 12 12 12 12 11 11 12 12 12 11 11 12 12 12 12 12 12 12 11 11 11 11 11 11 11 11 11
39 41 40 35 32 30 26 22 22 22 23 23 22 21 20 22 22 22 22 23 23 22 22 21 21 21 22 21 21 21 19 18 18 17 17 16 15 15 15 15 14 15 15 15 14 14 13 13 13 13 12 10 11 12 11 11 12 12 12 12 12 13 12 12 12 12 12 12 13 13 13 13 13 14 13 13 13 12 12 12 12 12 12 13 13
39 41 41 37 33 31 28 23 22 20 20 22 21 20 20 20 22 23 23 24 23 22 22 21 21 22 22 22 22 22 20 18 17 17 17 16 15 15 15 15 15 16 17 16 15 14 13 12 13 13 11 10 11 11 11 11 12 12 12 13 13 13 13 13 13 13 13 14 15 15 15 15 14 14 14 14 14 14 14 13 14 14 14 14 14
36 39 40 39 35 32 28 24 22 20 19 20 21 20 20 19 20 20 22 24 23 23 22 22 22 22 22 22 23 23 21 19 18 18 18 17 16 15 16 17 17 17 17 16 15 14 14 13 12 12 11 11 11 11 11 12 12 13 13 13 13 13 13 13 14 15 15 16 16 16 16 15 15 15 15 15 15 15 15 14 14 15 15 15 16
33 36 37 38 37 33 28 24 22 21 19 19 20 20 20 19 18 19 21 23 23 22 22 22 22 22 22 23 23 22 21 19 19 19 18 18 17 17 18 18 17 17 17 17 16 15 15 14 13 13 12 12 12 11 12 12 12 12 12 12 13 14 14 15 15 16 16 16 16 16 16 16 15 15 15 16 16 15 15 15 16 16 17 17 17
32 33 33 34 34 31 27 25 23 19 18 18 20 20 20 20 20 20 21 22 24 23 21 21 21 21 22 24 23 23 21 21 21 21 19 18 17 18 18 18 18 17 17 17 16 16 16 15 14 13 12 12 12 12 12 12 12 13 13 14 15 16 16 17 17 17 16 16 16 16 16 16 16 16 16 16 16 16 17 17 17 18 18 19 19
30 30 29 29 30 29 26 23 20 18 17 18 19 20 20 20 21 21 21 21 23 23 22 21 21 22 23 23 23 22 21 22 22 22 20 19 18 18 18 18 17 17 16 16 16 16 17 16 14 13 12 12 12 12 12 12 12 14 15 16 17 18 18 18 18 17 17 16 17 17 17 17 17 17 17 17 17 18 18 19 19 20 20 20 20
28 27 26 26 27 28 25 20 18 18 18 18 19 20 20 21 21 22 22 21 22 23 23 21 21 22 22 22 22 21 21 22 23 23 21 19 18 19 19 18 17 18 16 14 17 18 18 18 16 14 13 12 12 13 13 13 14 16 17 18 19 19 19 19 18 18 17 17 18 18 18 18 18 19 19 19 19 20 20 20 21 21 21 21 21
26 24 24 24 26 27 24 22 19 18 19 19 20 20 20 21 22 22 23 22 22 22 22 22 21 21 21 22 23 22 22 22 23 23 21 18 18 18 19 18 17 18 16 16 20 21 20 20 18 14 13 13 12 13 15 15 16 18 19 20 20 20 19 19 19 19 18 18 19 19 19 20 20 20 20 20 21 21 21 22 22 22 22 22 22
23 20 21 23 26 26 24 22 20 20 21 20 20 21 22 22 22 23 24 23 23 23 22 23 23 23 22 22 23 23 23 23 23 22 20 18 18 18 17 16 16 17 18 19 21 21 20 20 18 15 14 13 13 15 16 17 18 19 20 20 20 20 19 19 19 19 19 19 19 20 21 21 21 21 22 22 22 22 22 22 22 23 23 23 23
20 18 19 23 26 27 25 22 21 22 21 21 21 22 22 22 22 23 24 23 24 25 24 24 25 25 24 24 23 23 23 23 22 20 18 18 18 17 16 16 17 17 18 19 20 20 20 19 17 16 15 14 15 16 17 18 19 20 20 20 20 20 20 20 20 20 20 20 21 21 22 22 22 22 22 23 23 23 23 23 24 24 24 25 25
20 18 19 22 26 27 26 24 23 22 21 20 21 21 21 21 21 21 22 23 25 26 25 26 26 25 25 24 23 23 23 23 22 20 18 18 18 16 15 15 17 17 18 20 20 19 19 18 17 17 17 15 15 17 18 19 19 20 21 21 21 21 20 20 21 21 21 21 22 22 23 23 23 23 23 24 24 24 25 25 25 25 26 26 26
20 19 20 22 24 26 25 25 23 22 21 19 19 20 20 20 20 21 22 23 24 25 25 26 26 25 24 23 22 22 23 23 22 19 17 17 17 15 13 15 18 18 19 20 19 19 19 19 18 18 18 17 16 18 19 20 20 21 21 21 21 21 21 21 22 22 22 23 23 23 24 24 24 24 24 25 25 25 25 26 26 26 26 26 26
20 19 20 22 25 26 26 26 24 22 21 19 19 20 20 19 20 20 22 23 23 24 24 23 24 24 23 23 23 23 22 23 22 19 17 17 17 16 16 18 20 19 19 20 20 21 21 19 19 20 20 18 17 18 20 21 21 22 22 23 22 22 22 22 23 24 24 24 24 24 25 25 25 25 25 25 26 25 25 26 26 26 26 26 26
21 18 18 20 22 24 25 25 23 22 23 22 20 21 21 19 19 19 21 22 22 22 21 21 22 23 23 24 23 22 21 22 22 21 19 19 20 20 20 21 22 20 20 22 22 22 21 20 20 21 21 20 19 19 20 22 23 23 23 23 23 23 23 23 23 24 24 24 25 25 25 25 25 25 26 26 25 25 25 25 26 26 26 26 25
22 19 17 18 19 20 22 23 23 23 24 23 21 22 22 19 18 19 19 20 21 21 20 20 22 23 23 23 23 22 23 23 23 23 21 19 20 21 20 21 22 21 23 24 23 22 23 21 21 22 21 20 20 20 21 23 24 23 23 23 23 23 23 23 23 23 23 24 25 26 26 25 25 26 26 26 25 24 24 25 26 27 26 26 26
23 21 19 18 19 19 20 21 22 22 23 22 22 23 22 20 19 19 19 20 20 21 21 21 21 22 22 23 23 23 24 23 21 22 21 18 18 19 19 21 22 22 24 24 23 22 22 20 20 20 19 19 20 21 22 23 23 23 23 23 23 22 22 21 21 22 23 25 25 26 26 25 25 26 25 26 25 24 25 27 28 28 28 28 28
24 23 21 19 18 18 18 19 21 22 22 22 22 23 22 20 19 19 19 19 20 22 22 20 20 22 22 23 23 23 24 23 21 21 21 20 19 20 20 21 21 22 23 23 22 20 18 18 19 19 18 19 20 22 22 22 22 21 22 22 22 21 21 21 21 22 24 25 26 26 26 25 25 25 25 26 25 24 24 27 28 29 29 28 28
24 24 23 21 18 17 17 19 21 23 24 23 23 23 22 21 19 19 19 19 19 21 22 21 22 22 22 22 22 22 23 22 21 20 21 21 21 21 21 21 21 22 22 21 21 21 19 20 22 21 21 21 21 22 23 23 22 22 22 22 21 20 21 22 23 24 25 26 26 25 25 24 23 23 25 25 25 24 25 27 29 29 29 30 30
24 24 24 21 18 16 17 19 21 23 24 24 23 22 21 21 20 19 19 19 19 21 23 23 23 23 22 21 22 23 22 20 21 21 22 22 23 23 22 22 23 23 24 23 24 25 25 25 25 25 24 23 22 22 22 22 22 22 22 22 22 22 23 24 25 25 25 27 27 26 25 24 23 24 24 25 26 27 29 31 31 32 32 33 33
24 23 23 22 18 16 17 18 20 21 22 22 23 22 21 21 21 20 20 20 21 22 22 22 22 23 24 23 23 24 22 20 23 25 24 24 24 23 23 23 24 25 25 25 26 26 26 26 25 25 26 26 25 23 22 21 22 23 23 24 25 26 26 26 27 26 25 26 26 26 25 23 24 26 27 26 28 31 32 32 32 33 34 35 36
23 23 22 22 21 18 16 17 19 20 20 21 22 23 23 23 22 21 20 20 21 22 21 20 20 22 23 23 24 25 23 23 26 27 26 24 23 23 24 25 25 26 25 25 26 27 26 25 23 24 26 27 26 25 25 25 26 26 27 27 27 27 27 27 27 27 26 26 26 26 25 24 26 29 29 28 31 34 35 34 35 36 37 38 40
23 22 22 22 22 21 17 15 16 17 17 19 21 21 21 22 22 20 20 20 20 20 21 21 21 21 22 22 24 24 23 24 27 25 24 24 25 25 26 25 25 26 26 27 28 28 28 26 25 26 27 27 27 27 28 29 29 29 29 29 29 28 27 27 28 28 28 29 29 28 27 27 30 31 32 33 35 36 37 38 39 40 41 41 42
22 22 22 22 22 22 20 15 13 14 15 17 18 19 19 21 21 20 20 20 19 19 21 22 21 20 20 21 22 22 21 21 23 22 23 25 26 26 25 25 26 27 28 28 29 28 27 27 27 28 28 28 28 29 30 31 31 30 30 29 29 28 27 28 29 29 29 29 30 31 31 33 35 36 37 39 39 38 39 41 42 42 42 43 44
21 21 22 22 21 22 21 17 13 12 14 15 16 17 18 19 20 20 20 19 18 19 21 21 21 20 21 21 21 21 19 19 22 24 25 26 26 25 25 26 27 28 28 27 27 27 26 26 26 26 27 28 29 30 31 31 31 30 29 29 28 28 28 29 29 29 29 30 31 33 36 38 40 41 41 41 40 40 41 42 43 43 43 44 44
21 20 21 21 21 20 20 19 17 14 13 14 15 16 17 17 17 19 20 19 18 19 21 22 23 22 22 24 24 23 22 23 26 28 27 26 26 25 27 29 28 28 28 27 27 27 27 26 26 27 28 29 29 30 30 30 29 29 30 30 30 30 29 30 30 30 31 32 33 36 39 41 42 43 43 42 42 41 42 43 44 43 43 43 44
21 20 19 20 20 19 18 18 17 16 15 14 14 17 19 19 18 19 20 20 21 22 24 24 24 22 21 23 24 24 24 23 26 29 29 29 29 28 28 28 28 28 29 29 29 28 27 26 27 28 29 29 30 30 30 30 30 31 32 32 32 32 32 31 31 32 33 35 37 40 43 44 45 45 45 44 44 43 43 43 43 42 42 42 42
Wind_Direction
302 301 301 301 300 301 300 301 300 290 286 291 299 301 292 278 271 267 263 263 261 258 262 273 281 285 290 293 294 296 302 309 310 312 312 312 312 309 304 300 297 294 291 292 293 291 291 295 300 304 309 314 315 312 311 310 309 309 308 305 298 290 285 284 286 289 298 304 309 319 321 321 320 320 320 318 320 322 321 319 317 314 309 306 301
312 309 306 304 301 299 297 298 299 301 296 283 287 301 295 284 276 267 261 261 260 257 259 273 281 283 288 292 294 297 303 307 309 311 310 309 309 304 301 300 297 294 292 294 295 291 293 298 301 304 309 312 312 311 311 309 309 310 308 304 296 286 281 280 281 285 297 305 308 316 317 317 317 319 323 324 326 327 325 322 320 317 313 309 305
324 320 313 309 304 299 297 295 294 300 299 279 279 292 289 285 287 275 263 259 259 261 259 265 274 280 287 291 294 296 299 304 307 311 309 304 302 299 297 300 300 297 300 300 299 297 298 301 302 305 307 308 310 310 311 311 313 313 309 304 293 279 276 276 279 289 301 306 306 310 311 313 315 317 324 325 327 327 325 323 321 321 318 314 309
331 326 318 313 310 305 298 294 296 299 296 283 281 283 276 278 289 281 268 258 254 258 259 258 266 275 285 290 292 293 295 301 305 307 308 301 296 295 293 299 303 301 305 308 305 305 305 308 308 305 306 307 311 313 314 317 320 317 310 303 290 273 271 275 282 294 301 303 300 303 306 306 308 312 320 324 327 328 326 327 327 328 329 326 321
332 327 322 317 313 309 302 295 298 300 294 289 287 279 270 272 282 284 275 259 250 253 257 259 264 271 281 288 288 288 292 300 303 302 300 296 293 293 294 295 300 304 313 324 324 323 319 318 314 308 309 314 318 320 321 323 323 319 309 299 284 267 263 267 276 290 297 296 293 294 296 295 299 309 320 327 329 329 329 330 331 333 335 335 333
328 326 321 316 311 306 301 295 295 297 293 290 286 277 271 272 279 283 277 262 255 255 256 259 263 269 277 281 280 280 290 300 299 297 292 288 287 288 293 294 291 301 319 335 341 337 330 322 319 317 320 323 325 326 324 324 322 316 305 291 273 258 255 256 263 276 283 282 284 286 289 291 299 313 327 333 330 327 328 330 332 334 337 339 338
322 321 316 313 309 304 301 296 294 293 288 287 283 275 273 274 278 279 275 266 259 254 255 259 264 269 275 273 273 276 286 295 291 291 289 283 282 280 288 295 290 298 314 330 335 332 328 324 325 326 326 327 329 329 325 321 320 314 299 279 258 251 245 239 238 252 270 277 282 287 288 291 302 317 331 331 328 328 329 332 333 336 339 341 342
321 319 314 312 309 305 305 301 296 290 285 284 281 277 275 274 275 275 271 266 259 251 248 256 263 266 268 262 270 281 283 287 285 285 286 283 281 275 278 286 281 288 305 319 326 326 325 325 328 329 329 333 335 333 328 325 322 314 296 259 235 230 224 217 214 223 253 268 278 285 287 290 297 309 325 329 330 330 330 330 331 335 338 340 344
322 319 315 314 309 306 308 306 301 293 286 282 280 279 276 272 272 272 266 257 254 247 236 243 257 259 260 256 261 280 286 282 282 280 280 281 276 274 281 283 275 278 293 311 320 319 320 323 327 329 334 343 345 343 338 332 326 322 291 227 216 211 205 200 198 203 221 230 240 262 278 286 286 303 320 327 329 328 327 327 327 331 334 339 343
319 317 316 316 312 308 308 308 304 296 287 281 279 279 274 269 267 268 263 251 247 245 234 233 246 253 261 263 258 271 285 279 277 277 275 275 269 271 280 280 278 279 287 304 312 312 317 325 330 334 346 355 356 354 347 339 337 346 55 187 199 202 197 191 187 185 183 178 191 231 264 277 285 305 318 320 322 321 321 322 322 325 330 335 339
315 315 315 315 315 312 309 308 303 296 290 283 278 277 274 268 263 264 263 251 242 245 239 232 240 250 253 257 254 261 274 270 271 273 268 268 267 272 279 281 285 285 287 298 306 314 317 323 335 345 355 1 7 8 357 347 351 14 66 166 185 200 198 187 177 170 166 162 177 222 263 278 290 306 313 314 315 316 317 316 315 318 322 326 331
314 313 314 314 315 313 311 309 303 296 292 285 280 279 278 269 260 260 262 250 238 242 245 237 239 247 248 248 249 254 260 260 264 266 263 263 264 271 279 285 288 284 286 295 307 321 319 321 343 355 353 357 8 8 357 347 355 34 65 161 184 194 185 173 163 158 157 163 185 228 258 268 285 301 310 313 314 312 310 309 308 310 315 319 325
312 311 310 311 311 311 312 310 304 298 294 287 281 280 280 273 259 255 255 247 239 241 243 238 236 242 247 247 245 250 255 255 258 262 261 259 257 263 274 282 282 281 285 290 302 315 315 321 341 351 340 337 350 349 343 344 7 52 59 107 167 178 168 163 159 160 175 196 214 228 247 264 286 303 313 315 312 309 304 304 305 306 311 317 321
309 308 306 305 305 306 309 309 303 298 293 288 283 282 280 273 258 251 250 246 243 241 238 237 235 236 240 240 240 246 252 253 256 257 257 257 256 261 272 278 276 275 278 279 291 300 301 311 322 331 323 318 331 321 315 323 357 50 42 137 189 196 187 188 204 213 219 232 240 249 263 276 293 305 312 312 307 304 301 302 302 301 306 311 314
309 308 305 302 301 301 304 305 303 298 291 285 283 282 277 269 259 253 252 248 243 238 234 234 233 230 232 235 239 244 247 250 252 252 253 255 257 261 270 276 271 269 274 279 285 289 295 302 305 308 298 286 294 281 287 284 252 302 306 239 243 237 234 247 260 268 268 270 273 275 280 283 291 301 305 305 301 298 298 298 297 298 301 305 307
309 308 307 304 301 298 298 299 301 301 294 285 281 279 274 266 259 254 251 246 241 235 230 228 227 227 229 231 237 242 244 245 246 247 250 252 256 262 269 273 268 265 272 281 284 284 293 298 293 292 284 272 269 270 282 272 264 285 282 266 271 262 259 270 279 285 282 285 287 285 283 282 288 292 292 294 295 294 294 294 295 296 298 300 302
307 306 307 306 303 298 295 295 298 301 299 288 279 276 271 264 257 252 250 246 241 234 225 222 224 226 229 232 237 241 242 243 244 245 248 251 254 259 264 268 268 269 275 280 282 283 290 290 280 277 278 277 279 281 278 262 263 278 280 282 285 273 270 279 288 290 288 288 287 283 281 281 284 284 284 285 284 285 289 292 294 295 296 298 300
305 305 304 305 304 300 296 293 294 300 301 292 281 274 268 261 254 249 246 239 232 225 218 217 221 225 229 234 239 241 243 244 244 245 248 251 253 255 258 260 263 268 273 275 277 283 287 279 267 271 282 285 284 282 273 262 263 268 271 278 282 278 278 283 287 289 288 287 283 282 280 280 282 282 283 280 277 282 287 290 292 293 295 296 298
306 305 303 302 302 301 296 292 292 297 301 295 283 275 266 258 251 243 237 226 215 213 213 217 223 225 227 232 237 241 242 240 242 246 249 251 250 254 259 257 258 267 273 275 276 281 282 269 261 276 286 284 281 280 276 272 268 265 266 272 274 276 279 282 287 290 289 287 283 280 279 279 279 281 284 283 280 283 284 286 289 291 293 293 294
305 305 304 301 300 300 297 291 290 294 298 295 284 274 266 257 249 239 231 223 216 213 215 216 222 226 225 229 235 238 239 238 240 244 248 249 246 251 261 260 260 268 274 275 273 276 276 265 264 278 284 281 278 278 277 274 271 273 275 276 276 277 281 284 288 289 289 287 284 279 277 276 276 280 283 283 283 284 283 285 287 287 288 289 289
304 304 304 301 298 299 298 291 289 291 294 293 283 273 265 257 250 240 229 224 221 219 218 217 222 228 228 231 234 235 235 235 237 241 243 245 245 249 258 262 263 268 272 274 271 274 276 269 267 274 276 275 274 273 274 273 275 278 279 280 280 281 283 285 287 289 289 288 285 281 279 279 281 284 280 278 281 282 282 282 283 283 283 283 284
302 302 301 299 297 297 299 293 288 287 289 291 285 272 264 260 254 241 229 225 223 222 220 219 223 228 231 232 234 234 233 233 236 238 239 242 245 249 254 259 264 267 270 270 270 273 271 266 266 270 270 271 271 270 272 275 278 280 281 283 283 283 284 286 287 288 289 290 286 283 283 283 286 287 280 277 278 278 278 278 277 277 278 280 284
299 299 296 295 294 294 295 292 288 285 284 287 284 273 264 263 256 240 230 225 224 224 222 222 224 228 231 232 233 234 233 233 237 238 238 241 244 248 251 256 261 265 266 266 266 267 263 257 260 265 267 269 270 269 272 276 279 281 284 285 286 286 285 285 286 287 289 289 286 284 286 288 290 290 286 281 278 276 276 275 274 274 275 279 283
296 294 290 288 287 287 288 288 285 283 282 282 283 277 266 261 256 239 227 223 223 227 227 227 229 230 230 230 232 233 229 229 238 240 239 242 244 246 250 254 258 261 263 264 263 263 259 257 258 261 263 265 267 270 273 276 278 281 284 286 287 287 285 285 286 288 288 287 284 284 287 290 291 290 287 283 279 277 276 274 274 273 274 277 281
291 288 284 282 281 280 280 280 277 276 278 280 282 280 267 256 252 241 230 225 227 231 232 233 234 231 231 231 231 228 223 228 240 241 240 244 246 247 253 257 260 262 264 264 262 258 255 257 259 260 261 261 264 268 271 274 278 281 284 286 287 287 288 289 290 291 290 287 285 285 286 288 289 287 285 281 278 275 273 272 272 271 273 277 280
286 283 282 281 281 279 276 273 268 267 271 275 279 281 270 255 248 245 239 233 232 234 234 235 236 233 232 233 232 228 226 232 238 239 243 249 249 249 254 256 258 264 266 265 262 257 255 257 258 258 259 260 261 265 268 272 276 280 284 286 287 289 291 293 293 291 290 289 287 287 288 288 287 285 283 279 276 273 270 269 270 271 274 277 279
284 282 282 279 276 274 272 267 261 259 264 269 274 280 277 261 248 246 244 241 240 239 237 238 239 236 235 234 233 234 235 237 236 236 243 249 249 249 252 253 256 261 264 264 262 260 258 258 256 256 257 255 257 262 267 271 275 279 283 285 287 290 292 293 293 292 290 290 290 290 290 288 286 284 282 279 275 272 270 269 271 272 274 277 279
284 282 281 278 272 268 267 262 255 254 258 263 269 276 278 266 252 250 247 244 245 243 241 242 241 240 238 234 232 235 241 243 238 237 243 246 244 244 248 253 256 258 260 261 261 260 260 258 255 255 256 257 258 262 266 271 276 280 282 285 287 289 291 292 291 291 290 291 292 291 290 289 286 284 281 279 276 273 273 272 274 275 276 277 279
283 279 279 277 273 268 264 258 251 250 252 257 263 269 271 265 259 261 256 247 245 245 244 242 239 240 239 234 233 238 245 246 237 237 244 244 241 241 244 249 253 255 257 258 258 259 259 257 255 256 256 259 264 265 268 273 277 279 281 283 286 288 290 291 290 289 290 290 291 291 290 289 287 284 282 279 277 276 276 276 277 278 279 279 279
282 276 274 274 270 264 260 257 250 247 248 251 258 263 266 263 260 265 262 250 245 246 245 241 239 239 238 238 242 246 248 243 234 236 244 244 243 245 244 246 250 252 253 255 257 259 261 258 254 257 260 261 267 269 270 273 275 277 280 282 285 288 289 290 289 289 289 289 290 290 290 289 287 285 282 279 278 277 277 278 278 279 280 280 280
285 275 271 270 264 257 256 255 248 245 244 246 252 258 261 260 258 260 260 252 248 249 247 245 242 241 242 246 249 249 245 238 233 238 245 245 245 245 244 244 247 250 254 259 262 263 263 260 254 257 262 261 266 271 271 273 275 278 280 282 285 287 288 288 288 288 288 289 290 290 290 289 287 286 284 282 281 280 280 280 281 281 281 281 282
289 277 270 265 256 252 250 243 238 240 240 241 246 253 257 258 257 256 255 252 251 250 249 248 247 247 248 249 249 247 242 236 234 240 247 248 244 241 241 242 243 247 250 253 261 264 262 260 256 255 258 259 265 271 271 272 276 278 280 283 285 286 287 287 287 288 289 290 291 291 291 290 289 288 287 286 286 285 284 284 284 284 284 285 285
290 277 268 261 249 245 242 233 230 234 236 238 243 248 253 255 255 254 253 252 252 251 251 249 248 248 249 248 248 248 246 241 239 242 246 247 241 238 241 244 243 246 246 244 252 258 258 258 258 254 253 257 263 267 270 273 276 278 281 283 284 285 286 287 287 288 289 290 291 291 291 290 290 289 289 289 288 287 287 287 287 287 286 285 285
292 275 261 252 242 237 234 228 231 235 235 237 240 243 248 251 252 251 252 252 252 253 252 249 247 247 247 247 247 247 247 245 243 243 243 242 239 240 245 247 247 249 251 247 248 252 254 256 257 254 252 257 261 265 271 276 278 280 282 283 283 284 285 286 287 288 289 290 291 290 291 290 290 290 290 289 289 289 289 288 287 286 285 283 282
293 278 260 250 244 241 237 236 243 244 239 236 238 242 245 248 249 250 250 249 249 252 252 249 247 248 247 245 243 243 245 244 242 241 241 238 237 241 247 250 251 252 253 250 249 252 254 255 257 256 255 259 265 270 275 278 280 281 281 282 283 283 285 286 286 287 288 289 290 290 291 290 290 290 290 290 290 290 288 288 286 285 283 282 281
290 280 265 256 251 249 251 255 257 252 245 244 244 243 242 244 247 248 247 246 248 251 251 248 246 246 244 243 242 243 242 241 239 238 240 241 240 243 251 250 250 255 255 251 250 252 256 257 257 258 260 264 269 274 277 279 280 280 280 281 282 283 284 284 284 285 287 288 289 290 290 290 290 290 290 290 289 289 288 287 286 284 282 281 280
293 278 265 256 252 253 258 262 262 255 251 251 248 243 243 246 246 246 247 248 250 251 251 249 245 242 240 241 243 243 241 241 239 234 237 245 243 242 245 242 245 254 255 250 250 254 257 258 256 258 264 268 269 272 276 278 278 279 280 280 280 281 282 283 283 284 286 287 289 290 290 290 290 289 289 288 287 287 286 286 285 284 282 280 279
305 285 267 258 256 258 260 260 259 256 254 253 250 247 250 253 250 248 249 250 252 251 248 246 243 240 238 240 243 244 243 240 237 230 226 232 238 240 237 236 243 252 251 245 248 255 257 255 254 259 264 266 267 269 273 276 277 277 278 278 278 279 279 281 283 285 287 288 290 291 290 290 290 290 289 288 287 286 286 286 285 283 281 280 280
316 300 277 266 263 263 262 260 258 256 253 254 254 253 257 259 255 252 251 251 250 248 245 244 243 239 235 235 239 243 242 236 231 229 223 220 229 236 235 235 240 243 241 239 246 254 256 254 256 261 264 267 269 270 271 273 275 275 276 276 277 278 278 281 283 285 287 289 290 290 289 289 290 290 289 289 289 290 289 287 284 282 282 282 283
320 311 292 277 270 268 266 262 260 257 252 252 256 257 257 259 257 256 254 250 248 246 244 243 242 240 235 233 236 241 242 235 229 229 228 225 229 235 237 238 238 238 239 242 249 256 256 255 258 262 266 269 272 272 272 273 273 273 274 275 276 277 278 280 283 285 286 287 287 287 287 289 290 290 291 291 291 290 288 284 283 283 284 283 282
319 314 304 291 280 274 269 263 261 259 253 253 257 257 256 255 254 256 256 253 251 248 244 240 239 241 239 237 238 239 238 235 231 231 235 239 238 239 242 243 242 243 246 250 256 256 254 257 261 264 266 268 270 273 274 274 274 274 275 275 274 274 275 277 281 284 286 285 285 285 287 289 291 292 292 291 290 288 286 285 286 286 285 282 281
319 316 311 302 289 280 271 263 260 259 256 256 257 259 261 259 253 251 253 254 251 247 243 239 239 241 240 239 240 236 230 231 235 237 241 245 244 243 244 243 243 246 249 252 253 248 251 262 264 263 266 269 271 273 273 273 274 275 274 273 272 273 275 279 282 283 284 284 284 286 288 290 292 293 292 291 289 286 286 288 289 287 285 283 282
319 316 314 307 294 283 273 263 259 259 260 260 259 258 259 260 257 253 252 251 250 247 245 244 244 244 241 239 237 231 226 230 235 238 241 244 245 246 245 242 243 246 249 251 250 250 260 271 269 267 270 272 272 269 267 269 271 272 273 272 271 273 277 281 283 283 283 283 283 285 287 290 292 292 291 291 288 285 287 289 288 287 286 285 283
319 317 317 315 301 285 277 270 264 262 264 264 261 256 253 254 256 255 255 254 251 251 252 252 250 244 236 231 228 227 225 226 233 241 246 246 245 245 245 245 246 249 250 252 252 256 264 268 267 267 268 267 267 265 265 267 269 271 273 272 271 275 279 282 282 282 281 281 282 283 285 287 289 288 287 286 286 287 289 290 290 288 286 284 282
320 318 317 321 316 296 281 276 271 266 265 263 259 254 252 253 253 254 257 256 251 249 249 248 247 240 231 226 225 225 222 223 235 246 250 247 245 246 247 248 249 250 252 254 254 257 261 264 265 265 264 264 265 265 264 265 267 271 272 270 271 277 280 281 283 283 281 280 282 284 285 286 287 285 283 282 284 288 291 292 290 287 285 284 283
320 320 317 321 325 315 293 279 274 268 264 261 257 254 255 256 255 256 259 256 251 246 241 240 240 236 231 229 226 222 220 228 241 248 249 247 247 249 249 249 250 252 255 257 258 259 261 262 260 259 261 264 263 261 262 265 269 272 271 271 273 277 278 279 281 281 279 280 283 284 284 285 284 282 281 284 288 291 291 289 286 285 284 284 283
318 321 320 320 325 326 313 291 277 271 264 257 256 257 258 257 257 258 257 252 246 239 237 240 241 236 235 234 229 223 224 235 245 249 249 250 251 250 250 251 253 256 258 259 260 262 263 260 253 251 257 261 259 259 264 267 270 272 272 273 275 276 276 276 276 275 275 279 282 281 282 283 281 279 281 285 287 288 287 285 284 284 284 284 283
316 319 321 320 322 327 325 310 288 277 269 261 257 258 258 256 258 259 253 244 239 238 239 242 241 238 237 234 232 234 235 240 247 248 245 247 249 249 252 255 257 258 259 260 262 263 262 258 254 252 255 259 261 264 268 270 271 272 272 272 272 272 272 271 272 273 274 276 278 280 283 283 280 280 282 283 284 284 284 284 284 284 283 283 283
317 318 320 321 322 324 326 324 313 295 281 272 265 261 259 258 257 255 249 241 240 241 241 241 243 245 241 234 233 238 237 238 247 249 244 245 249 252 255 257 258 259 260 261 262 262 261 259 257 257 259 262 266 268 269 270 271 272 272 272 270 268 267 269 271 272 273 276 279 282 283 283 281 281 282 282 283 284 283 283 282 282 282 282 282
316 318 319 321 323 324 324 326 324 312 293 277 262 254 256 258 252 247 242 238 238 241 241 242 243 244 241 236 235 237 237 239 245 248 250 252 256 259 261 260 260 261 262 260 260 261 262 262 261 262 263 265 268 269 270 271 273 273 274 272 270 268 268 270 271 273 276 281 284 285 286 285 285 284 284 283 283 283 284 285 284 283 282 281 280
310 314 316 318 321 324 324 323 321 316 307 292 267 250 249 252 252 250 247 242 242 245 246 246 241 233 230 233 236 238 237 235 237 243 251 259 263 264 264 262 261 261 261 260 260 261 261 261 260 261 264 267 271 272 272 273 273 273 273 272 271 271 271 273 275 279 282 285 285 286 286 286 286 286 285 284 283 284 285 287 287 285 284 283 283
Height
5828 5828 5829 5829 5828 5826 5824 5822 5821 5821 5821 5821 5820 5820 5821 5821 5821 5822 5823 5823 5824 5825 5826 5825 5826 5826 5826 5826 5826 5826 5826 5827 5828 5827 5826 5825 5826 5825 5825 5825 5824 5824 5823 5823 5822 5822 5822 5821 5821 5821 5821 5821 5820 5820 5819 5819 5818 5818 5818 5818 5818 5818 5817 5817 5818 5818 5818 5818 5818 5818 5818 5818 5818 5817 5817 5817 5816 5816 5816 5816 5816 5815 5815 5815 5814
5827 5827 5827 5828 5826 5825 5823 5821 5820 5820 5819 5818 5818 5818 5819 5820 5820 5821 5821 5822 5822 5823 5824 5824 5825 5825 5826 5826 5825 5825 5825 5826 5827 5827 5826 5824 5824 5824 5823 5823 5823 5822 5822 5821 5821 5821 5820 5820 5820 5820 5820 5819 5819 5818 5818 5818 5817 5817 5817 5817 5817 5817 5817 5817 5817 5817 5817 5817 5817 5817 5817 5817 5817 5817 5816 5816 5816 5816 5815 5815 5815 5815 5814 5814 5814
5826 5825 5825 5825 5824 5823 5821 5820 5819 5819 5817 5816 5816 5817 5818 5818 5819 5820 5820 5821 5821 5822 5822 5823 5824 5824 5825 5825 5825 5825 5824 5824 5825 5826 5825 5823 5823 5822 5822 5822 5821 5821 5820 5820 5819 5819 5819 5819 5818 5818 5818 5818 5817 5817 5817 5817 5817 5816 5816 5816 5816 5816 5816 5816 5816 5816 5817 5817 5817 5817 5817 5817 5817 5816 5816 5816 5815 5815 5815 5815 5814 5814 5814 5813 5813
5823 5822 5821 5821 5821 5820 5818 5818 5818 5817 5816 5815 5814 5815 5816 5816 5817 5818 5819 5820 5820 5821 5821 5822 5823 5823 5823 5823 5823 5823 5823 5823 5823 5824 5824 5823 5821 5821 5821 5820 5820 5820 5819 5819 5818 5818 5818 5817 5817 5817 5817 5817 5816 5816 5816 5816 5816 5815 5815 5815 5815 5815 5815 5815 5815 5816 5816 5816 5816 5816 5816 5816 5816 5816 5816 5815 5815 5815 5814 5814 5814 5814 5813 5813 5813
5819 5818 5817 5817 5818 5818 5816 5816 5816 5815 5814 5814 5813 5812 5813 5814 5815 5817 5818 5819 5820 5820 5820 5820 5821 5821 5822 5822 5822 5822 5822 5822 5822 5822 5823 5822 5820 5819 5819 5819 5819 5819 5818 5818 5817 5817 5817 5817 5817 5816 5816 5816 5815 5815 5815 5815 5814 5814 5814 5814 5814 5814 5814 5815 5815 5815 5815 5815 5816 5816 5816 5816 5816 5815 5815 5815 5815 5814 5814 5814 5813 5813 5813 5813 5812
5817 5816 5815 5815 5815 5815 5815 5815 5814 5813 5812 5811 5811 5810 5811 5812 5813 5815 5817 5819 5819 5818 5817 5818 5819 5820 5820 5820 5820 5820 5820 5821 5821 5820 5821 5820 5820 5818 5818 5818 5818 5818 5817 5817 5816 5816 5816 5816 5816 5816 5815 5815 5815 5814 5814 5814 5813 5813 5813 5813 5813 5813 5814 5814 5814 5814 5815 5815 5815 5815 5815 5815 5815 5815 5815 5815 5815 5814 5814 5814 5813 5813 5812 5812 5812
5817 5816 5816 5814 5812 5811 5812 5812 5811 5810 5809 5809 5808 5808 5809 5810 5811 5813 5815 5816 5817 5816 5816 5817 5818 5819 5819 5819 5819 5819 5819 5820 5819 5819 5819 5818 5818 5818 5817 5817 5817 5817 5816 5816 5815 5815 5815 5815 5815 5815 5815 5814 5814 5813 5813 5813 5812 5812 5812 5812 5813 5813 5813 5814 5814 5814 5814 5814 5814 5815 5815 5815 5815 5815 5815 5815 5814 5814 5814 5813 5813 5813 5812 5812 5811
5818 5817 5815 5814 5812 5810 5809 5809 5808 5808 5807 5807 5806 5806 5807 5808 5809 5811 5813 5814 5814 5814 5814 5815 5818 5818 5818 5818 5818 5818 5818 5819 5818 5817 5817 5817 5816 5816 5816 5816 5816 5816 5815 5815 5815 5815 5815 5815 5815 5814 5814 5813 5813 5813 5812 5812 5811 5811 5811 5812 5812 5812 5813 5813 5813 5813 5814 5814 5814 5814 5814 5814 5814 5814 5814 5814 5814 5814 5813 5813 5813 5812 5812 5811 5811
5816 5815 5814 5812 5811 5809 5808 5807 5806 5806 5805 5805 5804 5804 5805 5806 5807 5808 5810 5811 5812 5812 5812 5815 5817 5816 5816 5817 5817 5817 5818 5817 5817 5816 5816 5815 5815 5815 5815 5815 5815 5815 5815 5814 5814 5814 5814 5814 5814 5813 5813 5812 5812 5812 5812 5812 5811 5811 5811 5811 5812 5812 5812 5813 5813 5813 5813 5814 5814 5814 5814 5814 5814 5814 5814 5814 5814 5814 5813 5813 5812 5812 5812 5811 5811
5813 5812 5811 5810 5808 5807 5806 5806 5805 5804 5804 5803 5803 5803 5803 5804 5805 5805 5807 5808 5810 5811 5810 5811 5815 5815 5814 5815 5816 5817 5817 5816 5816 5815 5815 5814 5813 5813 5814 5814 5814 5814 5814 5813 5813 5814 5814 5814 5813 5813 5812 5812 5812 5812 5812 5811 5811 5811 5811 5811 5811 5812 5812 5812 5813 5813 5813 5813 5813 5814 5814 5814 5814 5814 5814 5814 5813 5813 5813 5812 5812 5812 5811 5811 5811
5810 5809 5808 5808 5807 5805 5804 5804 5803 5803 5802 5802 5801 5801 5802 5802 5802 5802 5804 5806 5807 5807 5806 5808 5812 5812 5812 5813 5814 5815 5816 5815 5815 5814 5813 5813 5812 5812 5812 5812 5812 5812 5812 5812 5812 5812 5813 5813 5813 5812 5812 5811 5811 5811 5812 5812 5811 5811 5811 5811 5812 5812 5812 5812 5813 5813 5813 5813 5813 5814 5814 5814 5814 5814 5814 5813 5813 5813 5812 5812 5812 5811 5811 5811 5810
5808 5807 5805 5805 5805 5804 5803 5802 5801 5801 5800 5800 5799 5799 5799 5799 5799 5800 5800 5802 5804 5804 5804 5807 5809 5809 5809 5810 5811 5813 5813 5814 5814 5812 5812 5812 5812 5811 5811 5811 5811 5811 5811 5811 5811 5811 5812 5812 5812 5812 5811 5811 5811 5811 5811 5812 5811 5811 5811 5811 5812 5812 5812 5813 5813 5813 5813 5813 5813 5813 5813 5813 5813 5813 5813 5813 5812 5812 5812 5812 5811 5811 5811 5810 5810
5806 5805 5803 5802 5802 5802 5800 5799 5798 5798 5798 5798 5797 5797 5797 5796 5797 5797 5797 5799 5800 5802 5803 5805 5806 5806 5808 5808 5810 5810 5811 5811 5812 5811 5811 5811 5811 5810 5809 5810 5810 5810 5810 5810 5811 5811 5811 5812 5811 5811 5811 5811 5811 5811 5811 5811 5811 5811 5811 5811 5812 5812 5812 5812 5813 5813 5813 5813 5813 5813 5813 5813 5812 5812 5812 5812 5812 5811 5811 5811 5811 5811 5810 5810 5810
5804 5803 5802 5801 5800 5799 5798 5797 5796 5795 5795 5795 5795 5794 5794 5794 5794 5794 5795 5796 5797 5799 5800 5801 5803 5804 5805 5806 5807 5808 5809 5809 5810 5810 5810 5810 5810 5809 5808 5808 5809 5809 5809 5809 5810 5810 5811 5811 5811 5811 5811 5811 5811 5811 5811 5811 5811 5811 5811 5811 5811 5812 5812 5812 5813 5813 5813 5813 5812 5812 5812 5812 5811 5811 5811 5811 5811 5811 5811 5811 5810 5810 5810 5809 5809
5802 5801 5800 5799 5798 5797 5796 5795 5793 5793 5793 5792 5792 5792 5792 5791 5791 5792 5792 5793 5794 5796 5798 5799 5800 5802 5803 5804 5805 5806 5807 5808 5808 5808 5808 5808 5808 5808 5808 5807 5807 5808 5808 5808 5809 5809 5810 5810 5810 5810 5810 5810 5810 5810 5810 5811 5811 5811 5811 5811 5811 5811 5812 5812 5812 5812 5812 5812 5812 5812 5812 5811 5811 5810 5810 5810 5810 5810 5810 5810 5810 5810 5809 5809 5809
5800 5799 5798 5797 5796 5795 5794 5793 5791 5790 5790 5790 5790 5790 5790 5790 5789 5789 5790 5791 5792 5793 5795 5797 5798 5800 5802 5803 5803 5804 5805 5806 5806 5806 5806 5806 5807 5807 5807 5806 5806 5807 5807 5807 5807 5808 5808 5808 5809 5809 5809 5810 5810 5810 5810 5810 5811 5811 5811 5811 5811 5811 5811 5811 5811 5812 5812 5811 5811 5811 5811 5810 5810 5810 5809 5809 5809 5809 5809 5809 5809 5809 5809 5808 5808
5798 5797 5796 5795 5794 5793 5792 5790 5789 5788 5788 5787 5787 5787 5787 5787 5787 5787 5787 5788 5789 5790 5793 5794 5795 5797 5799 5801 5801 5802 5803 5804 5804 5804 5804 5805 5805 5806 5805 5805 5805 5805 5805 5805 5806 5806 5807 5807 5808 5808 5808 5808 5809 5809 5809 5809 5810 5810 5810 5810 5810 5810 5810 5810 5810 5811 5811 5810 5810 5810 5810 5809 5809 5809 5809 5809 5808 5808 5808 5808 5808 5808 5808 5807 5807
5795 5794 5794 5793 5792 5791 5790 5788 5787 5787 5786 5785 5785 5785 5785 5785 5785 5784 5785 5786 5786 5788 5791 5792 5793 5795 5797 5798 5799 5800 5801 5802 5802 5803 5803 5803 5803 5804 5804 5804 5804 5804 5803 5804 5805 5805 5805 5806 5806 5806 5806 5807 5807 5807 5808 5809 5809 5809 5809 5810 5810 5809 5809 5809 5809 5809 5809 5809 5809 5809 5808 5808 5808 5808 5808 5808 5808 5808 5808 5807 5807 5807 5807 5806 5806
5792 5791 5790 5790 5789 5789 5788 5787 5786 5786 5784 5783 5783 5782 5782 5782 5782 5783 5783 5784 5784 5786 5789 5790 5791 5793 5794 5796 5797 5798 5799 5800 5800 5801 5801 5801 5802 5802 5802 5802 5802 5802 5802 5803 5803 5803 5804 5804 5804 5804 5805 5805 5806 5806 5807 5807 5808 5808 5808 5809 5809 5809 5808 5808 5808 5808 5808 5808 5808 5808 5807 5807 5807 5807 5807 5807 5807 5807 5807 5806 5806 5806 5805 5805 5805
5789 5788 5787 5787 5786 5786 5786 5785 5784 5784 5783 5782 5781 5780 5780 5780 5780 5781 5782 5783 5783 5785 5787 5788 5789 5790 5792 5794 5795 5796 5797 5798 5799 5799 5799 5799 5800 5800 5800 5801 5801 5800 5801 5801 5801 5801 5802 5802 5802 5803 5803 5804 5804 5804 5805 5806 5806 5807 5807 5807 5807 5807 5807 5807 5807 5807 5807 5807 5807 5807 5806 5806 5806 5806 5806 5805 5805 5805 5805 5805 5805 5805 5804 5804 5803
5787 5785 5784 5783 5783 5782 5782 5782 5782 5783 5782 5781 5779 5779 5778 5778 5779 5780 5781 5782 5782 5783 5784 5786 5787 5788 5790 5791 5793 5794 5795 5796 5797 5797 5797 5798 5798 5799 5799 5799 5799 5799 5799 5799 5799 5799 5800 5800 5801 5801 5802 5802 5803 5803 5803 5804 5804 5804 5805 5805 5806 5806 5805 5805 5805 5805 5805 5805 5805 5805 5805 5805 5805 5805 5805 5804 5804 5804 5804 5804 5804 5803 5803 5802 5802
5784 5783 5781 5780 5780 5779 5779 5779 5779 5779 5780 5780 5778 5777 5777 5777 5777 5777 5778 5780 5781 5782 5783 5784 5785 5786 5788 5789 5791 5792 5793 5794 5795 5795 5795 5796 5796 5797 5797 5797 5797 5797 5797 5798 5798 5798 5798 5798 5799 5799 5800 5801 5801 5801 5801 5802 5802 5802 5803 5803 5803 5804 5804 5804 5804 5804 5804 5804 5804 5803 5803 5804 5804 5803 5803 5803 5802 5802 5802 5802 5802 5802 5801 5801 5801
5780 5780 5778 5776 5776 5776 5776 5775 5775 5775 5776 5777 5776 5775 5775 5775 5775 5775 5776 5778 5780 5781 5781 5782 5783 5784 5786 5787 5788 5789 5790 5791 5792 5792 5793 5794 5795 5795 5795 5796 5796 5796 5796 5796 5796 5796 5796 5796 5797 5797 5798 5799 5799 5799 5799 5800 5800 5800 5801 5801 5802 5802 5802 5802 5802 5802 5802 5802 5802 5802 5802 5802 5802 5802 5801 5801 5801 5800 5800 5800 5800 5800 5800 5799 5799
5777 5775 5774 5771 5771 5772 5772 5772 5772 5772 5772 5774 5774 5774 5773 5773 5773 5773 5774 5775 5777 5778 5779 5780 5781 5782 5784 5784 5785 5787 5787 5788 5789 5790 5791 5792 5792 5793 5793 5794 5794 5794 5794 5794 5795 5795 5794 5795 5795 5795 5796 5797 5797 5797 5797 5798 5798 5799 5799 5799 5800 5800 5800 5800 5800 5800 5800 5800 5800 5800 5800 5800 5800 5800 5800 5799 5799 5799 5798 5798 5798 5798 5798 5798 5798
5773 5769 5767 5767 5766 5767 5769 5769 5768 5768 5769 5770 5772 5772 5772 5771 5772 5772 5773 5774 5775 5776 5777 5778 5779 5780 5781 5782 5783 5785 5785 5786 5787 5788 5789 5789 5790 5790 5791 5791 5791 5792 5792 5793 5793 5793 5793 5793 5793 5794 5794 5795 5796 5795 5796 5796 5796 5797 5797 5798 5798 5798 5798 5798 5798 5798 5798 5799 5799 5798 5798 5798 5798 5798 5798 5797 5797 5797 5796 5796 5796 5796 5796 5796 5796
5768 5763 5761 5763 5763 5764 5765 5766 5765 5765 5766 5767 5768 5770 5770 5770 5770 5771 5772 5772 5773 5775 5776 5777 5778 5779 5779 5780 5781 5782 5783 5784 5785 5786 5787 5787 5787 5788 5789 5789 5789 5790 5790 5791 5791 5791 5792 5792 5792 5792 5792 5793 5794 5794 5794 5794 5795 5795 5796 5796 5796 5797 5797 5797 5797 5797 5797 5797 5796 5796 5796 5796 5796 5796 5796 5795 5795 5795 5794 5794 5794 5794 5794 5794 5794
5762 5759 5757 5758 5759 5760 5762 5763 5762 5762 5763 5763 5765 5766 5767 5767 5768 5769 5770 5771 5772 5773 5774 5775 5776 5777 5777 5779 5779 5779 5781 5782 5783 5784 5785 5785 5786 5786 5787 5787 5788 5788 5788 5789 5789 5789 5789 5790 5790 5790 5790 5791 5792 5792 5792 5793 5793 5794 5794 5795 5795 5795 5795 5795 5795 5795 5795 5795 5794 5794 5794 5794 5794 5793 5793 5793 5793 5793 5792 5792 5792 5791 5791 5791 5791
5758 5755 5754 5753 5754 5754 5757 5758 5758 5759 5759 5759 5761 5763 5764 5764 5765 5766 5767 5769 5770 5771 5772 5773 5774 5775 5775 5777 5777 5778 5779 5780 5782 5783 5783 5783 5784 5785 5785 5785 5786 5786 5786 5787 5787 5787 5787 5788 5788 5788 5789 5789 5789 5790 5790 5791 5791 5792 5792 5793 5793 5793 5793 5793 5793 5793 5793 5792 5792 5792 5792 5791 5791 5791 5791 5791 5791 5791 5790 5790 5790 5789 5789 5789 5789
5754 5752 5751 5750 5750 5751 5752 5753 5754 5755 5756 5756 5758 5759 5761 5761 5762 5763 5765 5766 5767 5768 5769 5770 5772 5773 5774 5774 5775 5776 5777 5778 5779 5780 5780 5780 5781 5783 5783 5784 5784 5784 5784 5784 5785 5785 5785 5786 5786 5786 5787 5787 5787 5788 5789 5789 5789 5790 5790 5791 5791 5791 5791 5791 5791 5791 5791 5790 5790 5790 5789 5789 5789 5789 5789 5789 5789 5789 5788 5788 5788 5787 5787 5787 5787
5748 5747 5746 5746 5746 5748 5749 5750 5751 5752 5753 5754 5755 5757 5758 5759 5760 5761 5762 5763 5764 5765 5766 5767 5769 5771 5772 5772 5774 5775 5775 5776 5777 5777 5777 5778 5779 5780 5780 5781 5782 5781 5781 5782 5782 5782 5783 5784 5784 5784 5785 5785 5785 5786 5787 5787 5787 5788 5788 5789 5789 5789 5789 5789 5789 5788 5788 5788 5788 5787 5787 5787 5787 5787 5787 5787 5787 5786 5786 5786 5785 5785 5785 5784 5784
5742 5742 5741 5741 5742 5743 5746 5748 5749 5749 5750 5752 5753 5754 5755 5756 5757 5758 5759 5760 5761 5762 5763 5765 5767 5768 5769 5770 5771 5772 5773 5774 5775 5775 5775 5776 5777 5777 5777 5778 5779 5779 5779 5779 5779 5780 5781 5782 5782 5783 5783 5783 5784 5784 5785 5785 5786 5786 5786 5786 5786 5786 5786 5786 5786 5786 5786 5785 5785 5785 5785 5785 5785 5785 5785 5784 5784 5784 5784 5783 5783 5782 5782 5782 5781
5737 5737 5737 5737 5738 5739 5742 5745 5745 5745 5747 5748 5749 5751 5752 5753 5754 5755 5756 5757 5758 5759 5761 5762 5763 5765 5766 5767 5768 5769 5771 5772 5773 5773 5774 5775 5775 5775 5775 5775 5775 5776 5777 5777 5778 5778 5779 5779 5780 5781 5781 5781 5782 5782 5783 5783 5784 5784 5784 5784 5784 5784 5784 5784 5784 5784 5783 5783 5783 5783 5783 5783 5782 5782 5782 5782 5782 5781 5781 5781 5780 5780 5779 5779 5779
5734 5734 5734 5734 5735 5736 5738 5739 5739 5740 5743 5745 5747 5748 5750 5751 5751 5753 5754 5754 5755 5756 5758 5759 5760 5761 5763 5764 5765 5766 5768 5769 5770 5771 5772 5772 5773 5773 5773 5773 5773 5773 5774 5776 5776 5776 5776 5777 5778 5779 5779 5779 5780 5780 5780 5781 5781 5781 5781 5781 5781 5781 5781 5781 5781 5781 5781 5781 5781 5781 5781 5780 5780 5780 5779 5779 5779 5778 5778 5778 5777 5777 5776 5776 5776
5732 5731 5731 5731 5731 5732 5734 5735 5735 5736 5739 5741 5743 5746 5747 5748 5749 5749 5750 5751 5751 5752 5754 5756 5757 5758 5760 5761 5762 5763 5765 5766 5767 5768 5769 5769 5769 5770 5770 5770 5770 5771 5772 5773 5774 5774 5774 5775 5775 5776 5776 5776 5777 5778 5777 5778 5778 5779 5779 5779 5779 5779 5779 5779 5779 5779 5779 5779 5779 5778 5778 5778 5777 5777 5776 5776 5775 5775 5775 5774 5774 5773 5773 5772 5772
5730 5729 5729 5730 5730 5730 5732 5733 5733 5734 5736 5738 5739 5742 5743 5744 5745 5745 5747 5748 5748 5748 5750 5752 5754 5755 5756 5758 5759 5760 5762 5763 5764 5765 5766 5766 5767 5767 5767 5768 5768 5768 5769 5770 5770 5771 5771 5772 5773 5773 5773 5774 5775 5775 5775 5775 5775 5775 5776 5776 5776 5776 5776 5777 5777 5777 5777 5776 5776 5775 5775 5775 5774 5774 5773 5773 5772 5771 5771 5770 5770 5769 5769 5768 5768
5730 5729 5728 5729 5730 5730 5732 5733 5733 5733 5735 5736 5737 5738 5739 5739 5740 5741 5743 5745 5745 5745 5746 5749 5750 5752 5753 5754 5756 5757 5758 5759 5760 5762 5762 5763 5764 5764 5765 5766 5765 5766 5766 5766 5767 5767 5768 5769 5770 5770 5770 5772 5772 5772 5772 5772 5773 5773 5773 5773 5773 5774 5774 5774 5774 5774 5774 5773 5773 5772 5772 5772 5771 5770 5770 5769 5768 5767 5767 5766 5765 5765 5764 5764 5763
5730 5728 5727 5728 5729 5729 5731 5732 5733 5734 5735 5735 5735 5735 5735 5736 5737 5738 5740 5741 5741 5742 5743 5746 5747 5749 5750 5752 5752 5753 5754 5755 5756 5758 5759 5760 5760 5761 5762 5763 5762 5763 5764 5764 5764 5764 5765 5767 5768 5768 5768 5769 5770 5770 5769 5769 5770 5770 5770 5770 5771 5771 5771 5771 5771 5771 5770 5770 5769 5769 5768 5768 5768 5767 5766 5765 5764 5764 5763 5762 5761 5761 5760 5759 5759
5729 5727 5726 5727 5728 5728 5728 5729 5731 5733 5734 5734 5733 5733 5733 5733 5735 5736 5737 5738 5738 5739 5740 5743 5744 5746 5748 5749 5749 5750 5751 5753 5753 5754 5757 5759 5758 5758 5759 5760 5760 5760 5761 5762 5762 5763 5763 5765 5766 5765 5765 5766 5767 5767 5767 5767 5767 5767 5767 5767 5767 5767 5768 5768 5767 5767 5767 5766 5765 5765 5764 5764 5764 5763 5762 5761 5760 5760 5760 5759 5758 5757 5756 5756 5756
5728 5726 5725 5725 5726 5726 5726 5727 5729 5732 5733 5733 5732 5732 5732 5732 5733 5734 5734 5735 5735 5736 5738 5740 5741 5742 5744 5746 5746 5747 5748 5750 5750 5750 5752 5756 5757 5756 5756 5758 5758 5758 5758 5759 5760 5760 5761 5762 5763 5762 5763 5763 5764 5764 5765 5764 5764 5764 5764 5764 5764 5764 5764 5765 5764 5763 5763 5762 5761 5761 5760 5760 5760 5759 5758 5757 5757 5757 5757 5756 5754 5753 5753 5753 5753
5728 5726 5724 5724 5724 5724 5725 5725 5727 5729 5730 5731 5731 5731 5730 5731 5731 5731 5731 5732 5733 5733 5735 5738 5738 5739 5740 5742 5743 5744 5745 5746 5747 5747 5749 5752 5754 5754 5754 5755 5755 5755 5755 5756 5757 5757 5758 5759 5760 5759 5759 5760 5760 5760 5761 5761 5760 5760 5760 5760 5761 5761 5761 5761 5760 5760 5759 5758 5758 5757 5756 5756 5756 5755 5755 5754 5754 5754 5753 5751 5750 5750 5750 5750 5749
5727 5725 5724 5724 5723 5723 5723 5724 5725 5727 5728 5730 5730 5729 5729 5729 5730 5729 5729 5730 5730 5731 5732 5735 5736 5736 5737 5739 5740 5741 5742 5744 5744 5745 5747 5749 5750 5751 5751 5752 5752 5753 5753 5753 5754 5755 5755 5756 5757 5756 5756 5756 5756 5756 5756 5756 5757 5757 5757 5757 5757 5757 5757 5757 5757 5756 5755 5754 5754 5753 5753 5753 5752 5752 5751 5751 5750 5749 5748 5747 5746 5746 5746 5746 5745
5726 5724 5724 5723 5723 5723 5723 5722 5723 5724 5726 5727 5727 5726 5726 5726 5727 5728 5728 5728 5728 5729 5730 5732 5733 5733 5734 5735 5736 5737 5739 5740 5741 5743 5745 5746 5746 5747 5748 5749 5749 5750 5751 5751 5752 5752 5752 5753 5753 5753 5754 5753 5753 5753 5752 5753 5753 5753 5753 5753 5753 5753 5753 5753 5753 5753 5752 5750 5750 5749 5749 5749 5749 5748 5747 5747 5746 5746 5745 5744 5743 5743 5743 5742 5742
5725 5724 5723 5722 5722 5722 5721 5720 5721 5722 5723 5724 5725 5725 5724 5723 5723 5724 5726 5727 5727 5727 5728 5729 5730 5731 5731 5732 5733 5734 5737 5737 5737 5739 5741 5742 5743 5744 5745 5746 5746 5747 5748 5749 5749 5749 5749 5750 5750 5750 5750 5750 5750 5749 5749 5749 5749 5749 5750 5750 5750 5750 5750 5749 5749 5748 5748 5746 5745 5746 5745 5745 5745 5745 5743 5743 5742 5742 5742 5741 5740 5740 5740 5739 5738
5724 5723 5722 5721 5720 5720 5719 5719 5719 5719 5719 5720 5722 5723 5723 5722 5721 5721 5723 5724 5725 5726 5726 5727 5727 5728 5730 5730 5730 5732 5734 5735 5734 5736 5738 5739 5740 5741 5742 5743 5743 5744 5745 5746 5746 5746 5747 5747 5747 5747 5746 5746 5746 5746 5746 5746 5746 5746 5746 5746 5746 5746 5746 5746 5745 5745 5744 5742 5741 5742 5742 5742 5742 5741 5740 5739 5738 5738 5738 5738 5737 5737 5736 5735 5734
5723 5722 5721 5720 5720 5719 5718 5717 5717 5716 5716 5717 5718 5719 5720 5720 5720 5720 5721 5722 5723 5724 5725 5725 5726 5726 5727 5728 5729 5729 5732 5733 5732 5733 5735 5736 5737 5738 5739 5740 5740 5740 5742 5743 5743 5744 5744 5744 5744 5743 5742 5742 5742 5742 5743 5743 5742 5743 5742 5742 5742 5743 5742 5742 5741 5740 5740 5739 5737 5737 5737 5738 5738 5736 5735 5735 5735 5734 5734 5734 5733 5732 5731 5730 5729
5722 5720 5720 5719 5719 5717 5716 5716 5715 5715 5715 5715 5715 5716 5717 5718 5718 5719 5719 5720 5720 5722 5723 5723 5724 5724 5725 5725 5726 5727 5729 5730 5731 5731 5731 5733 5734 5735 5735 5736 5736 5736 5738 5739 5739 5739 5740 5740 5740 5739 5738 5739 5739 5739 5739 5739 5739 5739 5738 5738 5739 5739 5739 5738 5737 5737 5735 5735 5734 5734 5734 5734 5734 5732 5731 5731 5731 5730 5729 5729 5728 5727 5726 5725 5724
5720 5719 5718 5718 5717 5716 5715 5714 5713 5713 5713 5713 5713 5714 5714 5715 5715 5716 5717 5717 5718 5719 5720 5721 5721 5722 5723 5723 5725 5725 5726 5727 5728 5729 5729 5730 5730 5731 5731 5732 5732 5732 5734 5735 5735 5735 5735 5736 5737 5736 5736 5736 5735 5735 5735 5735 5735 5734 5734 5735 5735 5735 5735 5734 5733 5733 5732 5731 5731 5730 5730 5730 5729 5727 5727 5727 5727 5726 5724 5723 5723 5722 5721 5720 5719
5718 5717 5717 5716 5715 5714 5713 5713 5712 5712 5712 5712 5712 5712 5712 5712 5713 5714 5714 5715 5715 5716 5718 5718 5719 5720 5721 5722 5723 5723 5724 5724 5725 5726 5727 5726 5726 5727 5728 5728 5728 5728 5729 5730 5730 5730 5731 5731 5732 5732 5732 5732 5732 5732 5732 5731 5731 5731 5731 5731 5731 5732 5731 5730 5729 5730 5729 5728 5727 5726 5726 5725 5723 5722 5723 5722 5721 5721 5720 5718 5717 5717 5716 5714 5713
5716 5716 5715 5714 5713 5713 5712 5712 5711 5711 5710 5710 5710 5710 5710 5710 5711 5712 5712 5713 5714 5714 5715 5716 5717 5718 5719 5719 5720 5721 5721 5721 5721 5722 5722 5722 5722 5723 5724 5724 5724 5724 5724 5725 5725 5726 5726 5727 5728 5728 5729 5728 5728 5728 5728 5728 5727 5727 5727 5727 5727 5728 5727 5726 5726 5726 5725 5724 5724 5722 5721 5719 5717 5717 5717 5716 5716 5715 5714 5712 5712 5711 5710 5709 5707
5714 5714 5713 5712 5711 5711 5710 5710 5710 5710 5709 5709 5709 5709 5709 5709 5710 5709 5710 5711 5712 5712 5713 5714 5715 5715 5716 5717 5718 5718 5718 5718 5718 5718 5719 5719 5719 5719 5720 5720 5720 5720 5720 5721 5721 5722 5723 5723 5724 5724 5724 5724 5724 5724 5724 5724 5724 5724 5723 5722 5722 5723 5723 5722 5722 5722 5721 5720 5719 5718 5715 5713 5711 5709 5709 5709 5710 5709 5707 5705 5705 5705 5704 5703 5702
5713 5712 5711 5710 5709 5709 5709 5709 5709 5709 5708 5708 5708 5708 5708 5708 5708 5708 5708 5709 5710 5710 5711 5712 5713 5713 5712 5713 5714 5715 5715 5716 5717 5716 5715 5715 5715 5716 5716 5716 5716 5716 5717 5717 5718 5718 5719 5720 5720 5720 5719 5720 5720 5720 5720 5720 5720 5720 5719 5718 5717 5717 5718 5718 5717 5717 5716 5715 5714 5712 5710 5707 5705 5703 5702 5701 5701 5702 5702 5700 5699 5698 5697 5696 5696